TimeIST,TemperatureF,Dew PointF,Humidity,Sea Level PressureIn,VisibilityMPH,Wind Direction,Wind SpeedMPH,Gust SpeedMPH,PrecipitationIn,Events,Conditions,WindDirDegrees,DateUTC
12:00 AM,55.4,55.4,100,30.06,0.3,East,6.9,-,N/A,Fog,Fog,80,2013-12-21 18:30:00
1:00 AM,55.4,55.4,100,30.04,0.3,East,8.1,-,N/A,Fog,Fog,90,2013-12-21 19:30:00
2:00 AM,55.4,55.4,100,30.04,0.3,East,6.9,-,N/A,Fog,Fog,80,2013-12-21 20:30:00
2:30 AM,56,55,95,29.94,0,East,4.6,,,Fog,Partial Fog,90,2013-12-21 21:00:00
3:00 AM,55.4,53.6,94,30.04,0.3,East,4.6,-,N/A,Fog,Fog,100,2013-12-21 21:30:00
4:00 AM,55.4,53.6,94,30.04,0.3,East,5.8,-,N/A,Fog,Fog,90,2013-12-21 22:30:00
5:30 AM,55,53,91,30.03,0,Calm,Calm,,,Fog,Patches of Fog,,2013-12-22 00:00:00
6:00 AM,55.4,53.6,94,30.06,0.5,Calm,Calm,-,N/A,Fog,Shallow Fog,0,2013-12-22 00:30:00
6:30 AM,55.4,51.8,88,30.06,0.6,Variable,2.3,-,N/A,,Partly Cloudy,0,2013-12-22 01:00:00
7:00 AM,55.4,51.8,88,30.06,0.6,Calm,Calm,-,N/A,,Partly Cloudy,0,2013-12-22 01:30:00
8:00 AM,55.4,50.0,82,30.09,0.7,Calm,Calm,-,N/A,,Partly Cloudy,0,2013-12-22 02:30:00
8:30 AM,55,51,81,30.09,1,Calm,Calm,,,,Mist,,2013-12-22 03:00:00
9:00 AM,57.2,51.8,82,30.12,0.7,Calm,Calm,-,N/A,,Mist,0,2013-12-22 03:30:00
10:00 AM,59.0,51.8,77,30.12,0.8,WNW,3.5,-,N/A,,Mist,300,2013-12-22 04:30:00
11:00 AM,62.6,51.8,68,30.12,0.9,Variable,1.2,-,N/A,,Mist,0,2013-12-22 05:30:00
11:30 AM,63,52,59,30.09,1,East,2.3,,,,Smoke,90,2013-12-22 06:00:00
12:00 PM,64.4,50.0,59,30.12,0.9,Variable,1.2,-,N/A,,Smoke,0,2013-12-22 06:30:00
1:00 PM,66.2,50.0,56,30.09,0.9,Variable,3.5,-,N/A,,Smoke,0,2013-12-22 07:30:00
2:00 PM,68.0,50.0,52,30.06,0.9,Variable,3.5,-,N/A,,Smoke,0,2013-12-22 08:30:00
2:30 PM,68,52,45,30.02,1,SW,2.3,,,,Smoke,230,2013-12-22 09:00:00
3:00 PM,68.0,50.0,52,30.04,0.9,Calm,Calm,-,N/A,,Smoke,0,2013-12-22 09:30:00
4:00 PM,68.0,51.8,56,30.04,0.9,ESE,5.8,-,N/A,,Smoke,120,2013-12-22 10:30:00
5:00 PM,66.2,51.8,60,30.04,0.9,Variable,3.5,-,N/A,,Smoke,0,2013-12-22 11:30:00
5:30 PM,64,53,59,30.02,1,ESE,2.3,,,,Smoke,110,2013-12-22 12:00:00
6:00 PM,62.6,53.6,72,30.06,0.9,East,6.9,-,N/A,,Smoke,90,2013-12-22 12:30:00
7:00 PM,59.0,51.8,77,30.09,0.9,NNE,6.9,-,N/A,,Smoke,30,2013-12-22 13:30:00
8:00 PM,57.2,51.8,82,30.09,0.9,Variable,2.3,-,N/A,,Smoke,0,2013-12-22 14:30:00
8:30 PM,56,52,81,30.06,1,NE,6.9,,,,Mist,50,2013-12-22 15:00:00
9:00 PM,55.4,51.8,88,30.12,0.8,NE,3.5,-,N/A,,Scattered Clouds,50,2013-12-22 15:30:00
10:00 PM,55.4,50.0,82,30.12,0.8,NNE,3.5,-,N/A,,Scattered Clouds,30,2013-12-22 16:30:00
11:00 PM,55.4,50.0,82,30.12,0.8,NE,3.5,-,N/A,,Scattered Clouds,50,2013-12-22 17:30:00
11:30 PM,55,51,80,30.11,1,NE,2.3,,,,Mist,50,2013-12-22 18:00:00